Tri-Cities, TN

1:54 PM EDT on August 19, 2017 (GMT -0400)
Tri-Cities Regional Tennessee / Virginia

Weather History for KTRI - October, 2011

Change the Weather History Date:

Saturday, October 29, 2011

  Actual Average Record
Temperature  
Mean Temperature 41 °F 52 °F  
Max Temperature 51 °F 65 °F 79 °F (1971)
Min Temperature 30 °F 39 °F 24 °F (1976)
Degree Days  
Heating Degree Days 24 13  
Month to date heating degree days 254 256  
Since 1 July heating degree days 270 309  
Cooling Degree Days 0 0  
Month to date cooling degree days 2 9  
Year to date cooling degree days 1331 977  
Moisture  
Dew Point 35 °F    
Average Humidity 66    
Maximum Humidity 93    
Minimum Humidity 39    
Precipitation  
Precipitation 0.14 in 0.08 in 1.42 in (1970)
Month to date precipitation 2.84 1.95  
Year to date precipitation 38.98 34.39  
Snow  
Snow 0.00 in 0.00 in - ()
Month to date snowfall 0.0 0.1  
Since 1 July snowfall 0.0 0.1  
Since 1 September snowfall 0.0 0.1  
Snow Depth 0.00 in    
Sea Level Pressure  
Sea Level Pressure 30.05 in    
Wind  
Wind Speed 5 mph (NW)    
Max Wind Speed 18 mph    
Max Gust Speed 23 mph    
Visibility 8 miles    
Events Rain    
T = Trace of Precipitation, MM = Missing Value Source: NWS Daily Summary

Daily Weather History Graph

Daily Weather History Graph

Search for Another Location

Airport or City:

Trip Planner

Search our weather history database for the weather conditions in past years. The results will help you decide how hot, cold, wet, or windy it might be!

Date:

Astronomy

Oct. 29, 2011 Rise Set
Actual Time 7:49 AM EDT 6:36 PM EDT
Civil Twilight 7:23 AM EDT 7:03 PM EDT
Nautical Twilight 6:52 AM EDT 7:33 PM EDT
Astronomical Twilight 6:22 AM EDT 8:03 PM EDT
Moon 11:04 AM EDT (10/29) 9:04 PM EDT (10/29)
Length of Visible Light 11h 39m
Length of Day
10h 46m
Waxing Crescent, 11% of the Moon is Illuminated
Oct 29
Waxing Crescent
Nov 2
First Quarter
Nov 10
Full
Nov 18
Last Quarter
Nov 25
New

Hourly Weather History & Observations

Time (EDT) Temp. Windchill Dew Point Humidity Pressure Visibility Wind Dir Wind Speed Gust Speed Precip Events Conditions
12:39 AM 42.8 °F - 39.2 °F 87% 29.98 in 5.0 mi Calm Calm - 0.00 in Rain Light Rain
12:53 AM 42.1 °F - 39.9 °F 92% 29.96 in 6.0 mi Calm Calm - 0.00 in Rain Light Rain
1:43 AM 41.0 °F - 39.2 °F 93% 29.99 in 5.0 mi Calm Calm - 0.04 in Rain Light Rain
1:53 AM 41.0 °F - 39.9 °F 96% 29.96 in 7.0 mi Calm Calm - 0.05 in Rain Light Rain
2:48 AM 41.0 °F - 39.2 °F 93% 29.98 in 3.0 mi Calm Calm - 0.00 in Rain Light Rain
2:53 AM 41.0 °F - 39.9 °F 96% 29.96 in 4.0 mi Calm Calm - 0.00 in   Light Drizzle
3:53 AM 41.0 °F 39.0 °F 39.0 °F 93% 29.96 in 5.0 mi North 3.5 mph - 0.01 in Rain Light Rain
4:05 AM 41.0 °F - 39.2 °F 93% 29.99 in 7.0 mi Calm Calm - 0.01 in   Overcast
4:49 AM 41.0 °F 37.1 °F 39.2 °F 93% 30.00 in 3.0 mi NW 5.8 mph - 0.02 in Rain Light Rain
4:53 AM 41.0 °F 36.4 °F 39.0 °F 93% 29.98 in 3.0 mi NW 6.9 mph - 0.02 in Rain Rain
5:02 AM 41.0 °F 37.1 °F 39.2 °F 93% 30.00 in 5.0 mi NW 5.8 mph - 0.02 in Rain Light Rain
5:12 AM 41.0 °F 38.0 °F 39.2 °F 93% 30.00 in 6.0 mi NNW 4.6 mph - 0.02 in Rain Light Rain
5:53 AM 41.0 °F 35.8 °F 37.9 °F 89% 29.99 in 10.0 mi WNW 8.1 mph - 0.04 in Rain Light Rain
6:26 AM 39.2 °F 34.2 °F 37.4 °F 93% 30.02 in 8.0 mi WNW 6.9 mph - 0.01 in Rain Light Rain
6:53 AM 39.0 °F 32.3 °F 37.0 °F 93% 30.02 in 6.0 mi WNW 10.4 mph - 0.02 in Rain Light Rain
7:52 AM 37.9 °F 32.7 °F 36.0 °F 93% 30.05 in 10.0 mi West 6.9 mph - 0.01 in   Overcast
8:30 AM 37.4 °F 31.4 °F 35.6 °F 93% 30.08 in 10.0 mi West 8.1 mph - N/A   Overcast
8:53 AM 37.9 °F 33.5 °F 36.0 °F 93% 30.08 in 10.0 mi WSW 5.8 mph - N/A   Overcast
9:53 AM 39.0 °F 34.0 °F 36.0 °F 89% 30.09 in 10.0 mi West 6.9 mph - N/A   Overcast
10:04 AM 39.2 °F 33.6 °F 35.6 °F 87% 30.11 in 10.0 mi West 8.1 mph - N/A   Overcast
10:33 AM 39.2 °F 34.2 °F 35.6 °F 87% 30.09 in 10.0 mi WNW 6.9 mph - N/A   Overcast
10:53 AM 39.9 °F 34.5 °F 36.0 °F 86% 30.08 in 10.0 mi WNW 8.1 mph - N/A   Overcast
11:53 AM 43.0 °F 40.3 °F 36.0 °F 76% 30.07 in 10.0 mi NW 4.6 mph - N/A   Mostly Cloudy
12:53 PM 45.0 °F 42.6 °F 35.1 °F 68% 30.08 in 10.0 mi NNE 4.6 mph - N/A   Mostly Cloudy
1:53 PM 48.9 °F - 32.0 °F 52% 30.07 in 10.0 mi NW 10.4 mph 16.1 mph N/A   Mostly Cloudy
2:53 PM 51.1 °F - 28.0 °F 41% 30.07 in 10.0 mi NW 12.7 mph 19.6 mph N/A   Scattered Clouds
3:53 PM 50.0 °F - 28.0 °F 43% 30.06 in 10.0 mi NW 11.5 mph 16.1 mph N/A   Scattered Clouds
4:53 PM 50.0 °F - 27.0 °F 41% 30.07 in 10.0 mi WNW 12.7 mph 19.6 mph N/A   Scattered Clouds
5:53 PM 48.0 °F - 27.0 °F 44% 30.08 in 10.0 mi NW 11.5 mph - N/A   Scattered Clouds
6:53 PM 45.0 °F 41.8 °F 27.0 °F 49% 30.09 in 10.0 mi WNW 5.8 mph - N/A   Scattered Clouds
7:53 PM 41.0 °F - 28.9 °F 62% 30.12 in 10.0 mi Calm Calm - N/A   Partly Cloudy
8:53 PM 35.1 °F - 30.0 °F 82% 30.13 in 10.0 mi Calm Calm - N/A   Clear
9:53 PM 35.1 °F - 30.0 °F 82% 30.15 in 10.0 mi Calm Calm - N/A   Clear
10:53 PM 34.0 °F - 30.0 °F 85% 30.16 in 10.0 mi Calm Calm - N/A   Clear
11:53 PM 33.1 °F - 28.9 °F 85% 30.16 in 10.0 mi Calm Calm - N/A   Clear